Location: Capvern
(43.1036°N, 0.3160°E)
Time: 12:17:20
(UTC+00:00)

Cosmos 489 Rocket - Pass Details

Date: 06 June 2022
Orbit: 952 x 983 km, 74.0° (Epoch: 01 July)

Event Time Altitude Azimuth Distance (km) Brightness Sun altitude
Rises 00:39:36 0° 347° (NNW) 3,650 8.6 -23.5°
Reaches altitude 10° 00:42:35 10° 360° (N) 2,705 7.9 -23.4°
Maximum altitude 00:47:47 27° 56° (ENE) 1,778 6.3 -23.2°
Drops below altitude 10° 00:52:59 10° 113° (ESE) 2,710 6.7 -23.0°
Enters shadow 00:55:53 - 125° (SE) 3,633 7.3 -22.9°
